DateTimeUTC,F1_A11,F1_S11,BsB_S11,BsG_S11,BsR_S11,BbsB_S11,BbsG_S11,BbsR_S11,BaB_A11,BaG_A11,BaR_A11,Tu_S11,T_S11,Uu_S11,U_S11,P_S11,T1_A11
2021-05-28T06:00:00Z,00000200,20000000,,,,,,,-000.04,0000.49,-000.03,17.6,24.2,10.2,06.8,0676.0,30.8
2021-05-28T06:01:00Z,00000200,20000000,,,,,,,0000.10,-000.26,0000.52,17.5,24.2,10.2,06.8,0676.0,30.8
2021-05-28T06:02:00Z,00000200,20000000,,,,,,,-000.03,0000.32,-000.09,17.5,24.2,10.3,06.8,0676.0,30.8
2021-05-28T06:03:00Z,00000200,60000000,,,,,,,0000.26,0000.01,0000.16,17.5,24.2,10.3,06.8,0676.0,30.8
2021-05-28T06:04:00Z,00000200,40000000,0000.80,0000.67,0000.27,0000.02,0000.28,-000.15,0000.42,0000.36,0000.56,17.7,24.0,10.5,07.1,0676.9,30.8
2021-05-28T06:05:00Z,00000200,00000000,0001.02,0000.85,0000.50,0000.09,0000.17,-000.25,0000.60,0000.41,0000.18,17.7,24.0,10.5,07.2,0677.0,30.8
2021-05-28T06:06:00Z,00000200,00000000,0000.56,0000.63,0000.33,0000.20,-000.05,-000.06,0000.63,0000.68,0000.30,17.7,24.0,10.4,07.1,0677.0,30.8
2021-05-28T06:07:00Z,00000200,00000000,0000.67,0000.72,0000.59,0000.15,0000.14,0000.30,0000.36,-000.04,0000.53,17.7,24.0,10.6,07.2,0677.0,30.8
2021-05-28T06:08:00Z,00000200,00000000,0000.40,0000.64,0000.53,0000.26,0000.21,0000.29,0000.40,0000.35,-000.16,17.7,23.9,10.6,07.2,0677.0,30.8
2021-05-28T06:09:00Z,00000200,00000000,0000.66,0001.07,0000.13,-000.29,0000.11,0000.05,-000.10,0000.33,0000.38,17.7,24.0,10.6,07.2,0677.1,30.8
2021-05-28T06:10:00Z,00000200,00000000,0001.02,0000.80,0000.46,0000.07,-000.10,0000.03,0000.79,0000.75,0000.36,17.7,24.0,10.6,07.2,0677.0,30.8
2021-05-28T06:11:00Z,00000200,00000000,0000.46,0000.72,0000.58,0000.02,-000.06,-000.12,0000.19,0000.33,0000.32,17.7,23.9,10.6,07.2,0677.0,30.8
2021-05-28T06:12:00Z,00000200,00000000,0000.63,0000.55,0000.34,0000.15,-000.11,-000.30,0000.65,-000.10,-000.01,17.7,24.0,10.5,07.2,0676.9,30.8
2021-05-28T06:13:00Z,00000200,00000000,0001.26,0000.84,0000.37,-000.24,0000.10,-000.24,0000.28,0000.60,0000.50,17.7,24.0,10.6,07.3,0676.9,30.8
2021-05-28T06:14:00Z,00000200,00000000,0001.19,0000.76,0000.47,0000.41,0000.04,-000.01,0000.60,0000.63,0000.11,17.7,24.0,10.6,07.2,0676.9,30.8
2021-05-28T06:15:00Z,00000200,00000000,0000.53,0000.71,0000.53,0000.44,0000.13,0000.09,-000.06,-000.05,0000.29,17.7,23.9,10.7,07.3,0676.9,30.8
2021-05-28T06:16:00Z,00000200,00000000,0001.06,0000.50,0000.48,0000.26,0000.06,-000.11,0000.55,0000.54,0000.23,17.7,23.9,10.6,07.2,0676.8,30.8
2021-05-28T06:17:00Z,00000200,00000000,0000.30,0000.50,0000.25,-000.03,-000.11,0000.35,0000.40,-000.11,0000.38,17.7,23.9,10.7,07.3,0676.7,30.8
2021-05-28T06:18:00Z,00000200,00000000,0000.95,0000.59,0000.19,0000.05,-000.12,-000.01,0000.13,0000.68,0000.00,17.7,23.9,10.6,07.2,0676.7,30.8
2021-05-28T06:19:00Z,00000200,00000000,0000.50,0000.89,0000.27,-000.45,0000.07,0000.01,0000.47,0000.24,0000.46,17.7,23.9,10.6,07.2,0676.7,30.8
2021-05-28T06:20:00Z,00000200,00000000,0000.27,0000.66,0000.54,0000.32,0000.10,0000.10,0000.48,0000.34,-000.15,17.7,23.9,10.5,07.2,0676.7,30.8
2021-05-28T06:21:00Z,00000200,00000000,0000.71,0000.98,0000.44,0000.07,-000.12,-000.13,0000.19,0000.54,0000.70,17.7,24.0,10.4,07.1,0676.8,30.8
2021-05-28T06:22:00Z,00000200,00000000,0001.07,0000.52,0000.35,-000.19,0000.05,0000.08,0000.28,0000.16,-000.01,17.7,23.9,10.4,07.1,0676.7,30.8
2021-05-28T06:23:00Z,00000200,00000000,0000.66,0000.56,0000.32,0000.18,0000.33,0000.08,0000.82,0000.42,0000.24,17.7,23.9,10.4,07.1,0676.7,30.8
2021-05-28T06:24:00Z,00000200,00000000,0000.50,0000.76,0000.44,0000.03,0000.09,0000.08,0000.40,0000.31,0000.18,17.7,23.9,10.4,07.1,0676.7,30.8
2021-05-28T06:25:00Z,00000200,00000000,0001.17,0000.72,0000.08,-000.31,-000.12,-000.20,0000.27,0000.43,0000.50,17.7,23.9,10.4,07.1,0676.6,30.8
2021-05-28T06:26:00Z,00000200,00000000,0000.67,0000.92,-000.01,-000.27,0000.10,-000.09,0000.25,0000.05,0000.20,17.7,23.9,10.4,07.1,0676.6,30.8
2021-05-28T06:27:00Z,00000200,00000000,0000.23,0000.81,0000.39,0000.06,0000.10,0000.11,0000.29,0000.98,0000.25,17.7,23.9,10.6,07.2,0676.6,30.8
2021-05-28T06:28:00Z,00000200,00000000,0000.76,0000.55,-000.03,0000.12,0000.29,-000.22,0000.58,-000.14,0000.07,17.7,23.9,10.5,07.2,0676.6,30.8
2021-05-28T06:29:00Z,00000200,00000000,0000.56,0000.52,0000.32,-000.41,0000.18,-000.11,0000.32,0000.21,0000.33,17.7,23.9,10.4,07.1,0676.6,30.8
2021-05-28T06:30:00Z,00000200,00000000,0000.58,0000.57,0000.25,-000.05,0000.18,-000.39,0000.50,0000.66,0000.23,17.7,23.9,10.4,07.1,0676.7,30.8
2021-05-28T06:31:00Z,00000200,00000000,0000.86,0000.59,0000.44,0000.18,0000.06,-000.01,0000.16,0000.18,0000.56,17.7,23.9,10.4,07.1,0676.6,30.8
2021-05-28T06:32:00Z,00000200,00000000,0001.20,0000.69,0000.23,-000.47,0000.04,-000.16,0000.55,0000.39,0000.24,17.7,23.9,10.4,07.1,0676.6,30.8
2021-05-28T06:33:00Z,00000200,00000000,0000.85,0000.61,0000.22,-000.16,-000.02,-000.12,0000.33,0000.53,0000.38,17.7,23.9,10.5,07.2,0676.6,30.8
2021-05-28T06:34:00Z,00000200,00000000,0000.23,0000.49,-000.04,-000.48,0000.01,-000.25,0000.31,-000.07,0000.14,17.7,23.9,10.7,07.3,0676.7,30.8
2021-05-28T06:35:00Z,00000200,00000000,0000.06,0000.66,0000.25,-000.21,-000.01,-000.11,0000.36,0000.36,0000.09,17.7,23.9,10.5,07.2,0676.8,30.8
2021-05-28T06:36:00Z,00000200,00000000,0000.70,0000.56,0000.12,-000.18,0000.10,-000.05,0000.39,0000.33,0000.37,17.7,23.9,10.5,07.2,0676.8,30.8
2021-05-28T06:37:00Z,00000200,00000000,0000.88,0000.95,0000.09,-000.38,0000.12,-000.09,0000.21,0000.33,-000.05,17.7,23.9,10.5,07.2,0676.7,30.8
2021-05-28T06:38:00Z,00000200,00000000,0000.60,0000.60,0000.21,0000.06,0000.04,-000.19,0000.41,0000.49,0000.41,17.7,23.9,10.6,07.2,0676.6,30.8
2021-05-28T06:39:00Z,00000200,00000000,0000.65,0000.49,0000.56,0000.14,0000.11,0000.09,0000.41,0000.40,0000.43,17.7,23.9,10.7,07.3,0676.6,30.8
2021-05-28T06:40:00Z,00000200,00000000,0000.67,0000.87,0000.29,-000.36,0000.04,-000.22,0000.41,0000.27,-000.02,17.7,23.9,10.7,07.3,0676.7,30.8
2021-05-28T06:41:00Z,00000200,00000000,0000.12,0000.65,0000.28,-000.34,0000.15,-000.03,0000.07,0000.39,0000.61,17.7,23.9,10.6,07.2,0676.9,30.8
2021-05-28T06:42:00Z,00000200,00000000,0000.98,0000.70,0000.46,-000.18,0000.02,-000.07,0000.56,0000.51,0000.16,17.7,23.9,10.6,07.3,0676.7,30.8
2021-05-28T06:43:00Z,00000200,00000000,0000.36,0000.47,0000.38,-000.37,0000.12,0000.08,0000.13,-000.03,0000.05,17.7,23.9,10.8,07.4,0676.7,30.8
2021-05-28T06:44:00Z,00000200,00000000,0001.16,0000.59,0000.54,-000.25,0000.04,-000.11,0000.79,0000.38,0000.28,17.7,23.9,10.7,07.3,0676.7,30.8
2021-05-28T06:45:00Z,00000200,00000000,0000.79,0000.49,0000.14,-000.06,0000.37,-000.09,0000.29,0000.31,0000.26,17.7,23.9,10.9,07.4,0676.7,30.8
2021-05-28T06:46:00Z,00000200,00000000,0001.24,0000.77,0000.63,-000.03,0000.22,0000.06,0000.00,0000.29,0000.38,17.7,23.9,10.7,07.3,0676.7,30.8
2021-05-28T06:47:00Z,00000200,00000000,0000.60,0000.45,-000.03,0000.53,0000.13,0000.00,0000.66,0000.50,0000.42,17.7,23.9,10.8,07.4,0676.8,30.8
2021-05-28T06:48:00Z,00000200,00000000,0000.79,0000.67,0000.34,-000.02,-000.20,0000.16,0000.32,-000.06,0000.04,17.7,23.9,10.8,07.4,0676.8,30.8
2021-05-28T06:49:00Z,00000200,00000000,0001.15,0000.78,0000.56,0000.18,-000.19,-000.04,0000.50,0000.56,0000.23,17.7,23.9,10.7,07.3,0676.9,30.8
2021-05-28T06:50:00Z,00000200,00000000,0000.47,0000.43,0000.47,0000.13,-000.07,0000.18,0000.22,0000.73,0000.44,17.7,23.9,10.8,07.4,0676.8,30.8
2021-05-28T06:51:00Z,00000200,00000000,0000.74,0000.88,0000.25,0000.16,0000.28,-000.09,0000.33,-000.09,0000.00,17.7,23.9,10.8,07.4,0676.8,30.8
2021-05-28T06:52:00Z,00000200,00000000,0000.56,0000.65,0000.38,0000.25,0000.00,0000.37,0000.30,0000.87,0000.36,17.7,23.9,11.0,07.5,0676.7,30.8
2021-05-28T06:53:00Z,00000200,00000000,0000.91,0000.55,0000.36,0000.02,0000.18,-000.07,0000.75,0000.14,0000.23,17.7,23.8,11.1,07.6,0676.7,30.8
2021-05-28T06:54:00Z,00000200,00000000,0000.21,0000.74,0000.50,0000.47,0000.03,0000.04,0000.48,0000.20,0000.33,17.7,23.8,11.1,07.5,0676.6,30.8
2021-05-28T06:55:00Z,00000200,00000000,0000.39,0000.48,0000.19,0000.06,0000.12,-000.28,0000.28,0000.35,0000.20,17.7,23.9,11.1,07.6,0676.5,30.8
2021-05-28T06:56:00Z,00000200,00000000,0001.21,0000.87,0000.36,0000.16,0000.05,0000.04,0000.34,0000.83,0000.49,17.7,23.8,11.3,07.7,0676.4,30.8
2021-05-28T06:57:00Z,00000200,40000000,,,,,,,-000.05,-000.43,0000.15,17.7,23.8,11.4,07.8,0676.3,30.8
2021-05-28T06:58:00Z,00000200,60000000,,,,,,,0000.08,0000.08,-000.13,17.5,24.0,11.0,07.3,0675.4,30.8
2021-05-28T06:59:00Z,00000200,20000000,,,,,,,0000.06,0000.24,0000.10,17.5,24.1,11.1,07.4,0675.4,30.8
